[Iaude] MPEC T172: 2023 TV6 [a=1.42,e=0.15,i=18.4,H=23.8]

mpec at marsden.cfa.harvard.edu mpec at marsden.cfa.harvard.edu
Thu Oct 12 01:50:11 EDT 2023


M.P.E.C. 2023-T172                             Issued 2023 October 12, 05:48 UT

     The Minor Planet Electronic Circulars contain information on unusual
         minor planets, routine data on comets and natural satellites,
         and occasional editorial announcements.  They are published
    on behalf of Division F of the International Astronomical Union by the
          Minor Planet Center, Smithsonian Astrophysical Observatory,
                          Cambridge, MA 02138, U.S.A.
			  
             Prepared using the Tamkin Foundation Computer Network

                              MPC at CFA.HARVARD.EDU
            URL https://www.minorplanetcenter.net/    ISSN 1523-6714

                                    2023 TV6                                    


Observations:
     K23T06V  C2023 10 05.47923901 00 50.535+10 34 39.08         21.74GVET172F51
     K23T06V  C2023 10 05.50113301 00 50.564+10 32 59.74         21.72GVET172F51
     K23T06V  C2023 10 07.32292201 01 18.706+08 15 59.80         21.90GVET172F52
     K23T06V  C2023 10 07.34844601 01 18.741+08 14 05.53         21.50GVET172F52
     K23T06V  C2023 10 07.36123201 01 18.780+08 13 08.93         21.65GVET172F52
     K23T06V  C2023 10 08.39060701 01 31.892+06 56 33.93         21.37GVET172F52
     K23T06V  C2023 10 08.40213401 01 31.854+06 55 43.25         21.51GVET172F52
     K23T06V  C2023 10 08.41365101 01 31.869+06 54 52.35         21.53GVET172F52
     K23T06V  C2023 10 08.42518601 01 31.833+06 54 00.88         21.57GVET172F52
     K23T06V* C2023 10 11.42556401 02 08.207+03 16 18.94         21.73wXET172F51
     K23T06V  C2023 10 11.43759501 02 08.194+03 15 27.69         21.46wXET172F51
     K23T06V  C2023 10 11.45032801 02 08.170+03 14 33.87         21.73wXET172F51
     K23T06V  C2023 10 11.45096901 02 08.163+03 14 31.04         21.70wXET172F51
     K23T06V  C2023 10 11.46302801 02 08.148+03 13 39.68         22.11wXET172F51
     K23T06V  C2023 10 11.46367001 02 08.165+03 13 36.64         20.92wXET172F51
     K23T06V  C2023 10 11.55437901 02 08.186+03 07 11.14         21.60GVET172F51
     K23T06V  C2023 10 11.55519101 02 08.181+03 07 07.90         21.34GVET172F51
     K23T06V  C2023 10 11.55600701 02 08.203+03 07 04.21         21.26GVET172F51
     K23T06V  C2023 10 11.55681801 02 08.206+03 07 01.05         21.87GVET172F51
     K23T06V KC2023 10 11.90807701 02 14.36 +02 42 03.9          21.7 GVET172598
     K23T06V KC2023 10 11.91489001 02 14.37 +02 41 35.1          20.8 GVET172598
     K23T06V KC2023 10 11.92112401 02 14.37 +02 41 08.9          21.1 GVET172598
     K23T06V KC2023 10 12.19469601 02 17.62 +02 22 01.7          21.6 VuET172H21
     K23T06V KC2023 10 12.20329301 02 17.63 +02 21 25.7          21.5 VuET172H21
     K23T06V KC2023 10 12.20890501 02 17.63 +02 21 02.1          21.6 VuET172H21

Observer details:
598 Loiano.  Observer A. Carbognani.  1.52-m f/4.7 Reflector + CCD.
F51 Pan-STARRS 1, Haleakala.  Observers J. Bulger, T. Lowe, P. Minguez, A.
    Schultz, I. Smith.  Measurers K. Chambers, T. de Boer, J. Fairlamb, H.
    Gao, M. Huber, C.-C. Lin, E. Magnier, Y. Ramanjooloo, R. Wainscoat, R.
    Weryk, J. Bulger, T. Lowe, P. Minguez, A. Schultz, I. Smith.  1.8-m
    Ritchey-Chretien + CCD.
F52 Pan-STARRS 2, Haleakala.  Observers J. Bulger, T. Lowe, P. Minguez, A.
    Schultz, I. Smith.  Measurers K. Chambers, T. de Boer, J. Fairlamb, H.
    Gao, M. Huber, C.-C. Lin, E. Magnier, Y. Ramanjooloo, R. Wainscoat, R.
    Weryk.  1.8-m Ritchey-Chretien + CCD.
H21 Astronomical Research Observatory, Westfield.  Observer R. Holmes.
    Measurers T. Linder, R. Holmes, L. Horn.  0.81-m f/4.0 astrograph + CCD.

Orbital elements:
2023 TV6                                                 Earth MOID = 0.2420 AU
Epoch 2023 Sept. 13.0 TT = JDT 2460200.5                Veres                   
M  15.12771              (2000.0)            P               Q                  
n   0.57968139     Peri.  140.01612     +0.89929089     +0.42946767             
a   1.4245460      Node   195.19851     -0.43619915     +0.89446407             
e   0.1470711      Incl.   18.37988     +0.03172058     +0.12446509             
P   1.70           H   23.88          G   0.15           U   9                  
Residuals in seconds of arc
231005 F51  0.1+  0.1-    231011 F51  0.1-  0.1+    231011 F51  0.1+  0.3+
231005 F51  0.0   0.1+    231011 F51  0.0   0.0     231011 598  0.0   0.0
231007 F52  0.1+  0.0     231011 F51  0.1-  0.3+    231011 598  0.1-  0.1-
231007 F52  0.2-  0.3-    231011 F51  0.2-  0.2+    231011 598  0.2-  0.0
231007 F52  0.1+  0.3+    231011 F51  0.1-  0.1+    231012 H21  0.2+  0.1+
231008 F52  0.3+  0.4-    231011 F51  0.1+  0.2-    231012 H21  0.3+  0.1+
231008 F52  0.2-  0.1+    231011 F51  0.1-  0.0     231012 H21  0.2+  0.0
231008 F52  0.2+  0.3+    231011 F51  0.2-  0.2+
231008 F52  0.2-  0.0     231011 F51  0.1+  0.0

Ephemeris:
2023 TV6                 a,e,i = 1.42, 0.15, 18                  q = 1.2150
Date    TT    R. A. (2000) Decl.     Delta      r    Elong.  Phase     V
2023 09 12    00 47 19.7 +35 44 06   0.2852  1.2242   134.7    35.8    23.1
...
2023 09 27    00 57 59.9 +21 05 33   0.2511  1.2380   157.3    18.2    22.3
...
2023 10 05    01 00 43.8 +11 11 02   0.2495  1.2476   171.7     6.7    21.8
...
2023 10 11    01 02 03.2 +03 46 49   0.2575  1.2558   177.1     2.3    21.7
2023 10 12    01 02 14.9 +02 36 03   0.2596  1.2572   175.4     3.7    21.8
2023 10 13    01 02 26.5 +01 26 38   0.2620  1.2587   173.7     5.0    21.9
...
2023 10 19    01 03 40.6 -04 54 57   0.2804  1.2678   163.7    12.7    22.4
...
2023 10 27    01 05 59.1 -11 33 11   0.3152  1.2810   152.1    21.3    23.0
...
2023 11 11    01 13 44.1 -18 33 16   0.4032  1.3084   135.4    32.1    23.9

M. P. C. Staff               (C) Copyright 2023 MPC           M.P.E.C. 2023-T172





More information about the Iaude mailing list